CW8332 Weather Reports


time (UTC)temp
C
wind
direction
speed
KPH
gust
KPH
rain 1hr
cm
rain 24hr
cm
rain mn
cm
humidity
%
barometer
mb
20260508054734 10 163 0.0 1.6 0.00 0.20 0.00 65 1011.3
20260508053248 10 167 0.0 1.6 0.00 0.20 0.00 66 1011.6
20260508051723 9 167 0.0 0.0 0.00 0.20 0.00 66 1011.7
20260508050225 10 167 0.0 3.2 0.00 0.20 0.00 66 1011.6
20260508044725 10 279 0.0 1.6 0.00 0.20 0.00 65 1011.8
20260508043221 9 279 0.0 4.8 0.00 0.20 0.00 66 1011.8
20260508041735 8 272 0.0 0.0 0.00 0.20 0.00 66 1011.8
20260508040237 8 272 0.0 0.0 0.00 0.20 0.00 66 1011.9
20260508034717 8 272 0.0 1.6 0.03 0.23 0.20 67 1011.9
20260508033233 7 272 0.0 0.0 0.03 0.23 0.20 67 1012.0
20260508031726 7 272 0.0 0.0 0.03 0.23 0.20 67 1011.7
20260508030227 8 272 0.0 0.0 0.03 0.23 0.20 67 1011.7
20260508024729 8 272 0.0 0.0 0.00 0.20 0.18 65 1011.8
20260508023223 8 272 0.0 0.0 0.00 0.20 0.18 63 1011.7
20260508021713 9 272 0.0 0.0 0.00 0.20 0.18 60 1011.7
20260508020236 10 272 0.0 0.0 0.00 0.20 0.18 59 1011.6
20260508014717 10 272 0.0 0.0 0.00 0.23 0.18 58 1011.7
20260508013213 10 272 0.0 0.0 0.00 0.23 0.18 56 1011.4
20260508011725 11 272 0.0 0.0 0.00 0.23 0.18 53 1011.4
20260508010224 11 273 1.6 6.4 0.00 0.23 0.18 51 1011.3
20260508004727 11 242 1.6 4.8 0.00 0.23 0.18 50 1011.2
20260508003223 11 255 1.6 4.8 0.00 0.23 0.18 50 1011.3
20260508001713 12 279 3.2 8.0 0.00 0.23 0.18 50 1011.2
20260508000235 12 276 3.2 11.3 0.00 0.23 0.18 49 1011.0
20260507234742 12 264 4.8 14.5 0.00 0.25 0.18 48 1011.0
20260507233213 12 276 4.8 12.9 0.00 0.25 0.18 47 1011.1
20260507231725 13 271 4.8 12.9 0.00 0.25 0.18 47 1011.0
20260507230226 13 272 8.0 14.5 0.03 0.25 0.18 46 1011.1
20260507224730 13 248 6.4 19.3 0.03 0.28 0.18 45 1011.3
20260507223221 13 271 9.7 20.9 0.03 0.28 0.18 42 1011.2
20260507221734 13 296 6.4 17.7 0.03 0.28 0.18 43 1011.2
20260507220236 13 273 11.3 19.3 0.00 0.25 0.15 42 1011.2
20260507214719 13 279 6.4 20.9 0.00 0.25 0.15 45 1011.1
20260507213231 13 309 11.3 20.9 0.00 0.25 0.15 50 1011.1
20260507211722 13 284 8.0 19.3 0.00 0.25 0.15 52 1011.0
20260507210230 12 281 6.4 24.1 0.00 0.25 0.15 53 1010.8
20260507204731 12 288 6.4 11.3 0.00 0.28 0.15 56 1010.7
20260507203220 11 286 6.4 17.7 0.00 0.28 0.15 57 1010.9
20260507201734 12 288 9.7 14.5 0.00 0.28 0.15 58 1010.9
20260507200242 12 311 8.0 16.1 0.00 0.28 0.15 54 1010.7
20260507194722 12 286 8.0 17.7 0.00 0.30 0.15 54 1010.8
20260507193212 13 271 6.4 12.9 0.00 0.30 0.15 51 1010.8
20260507191725 13 287 6.4 16.1 0.00 0.30 0.15 50 1011.0
20260507190232 13 291 6.4 14.5 0.00 0.30 0.15 51 1011.1
20260507184713 13 314 4.8 16.1 0.00 0.36 0.15 50 1011.1
20260507183223 13 284 3.2 12.9 0.03 0.36 0.15 50 1011.2
20260507181722 13 283 6.4 14.5 0.03 0.36 0.15 50 1011.3
20260507180223 13 219 6.4 17.7 0.03 0.36 0.15 49 1011.2
20260507174723 13 294 6.4 12.9 0.03 0.38 0.15 51 1011.2
20260507173217 13 284 4.8 17.7 0.00 0.36 0.13 50 1011.5
20260507171734 12 283 6.4 14.5 0.00 0.36 0.13 52 1011.5
20260507170235 13 277 4.8 14.5 0.00 0.36 0.13 51 1011.6
20260507164714 12 291 4.8 16.1 0.03 0.38 0.13 55 1011.5
20260507163229 12 305 4.8 14.5 0.03 0.38 0.13 58 1011.4
20260507161747 13 293 6.4 12.9 0.03 0.38 0.13 59 1011.6
20260507160226 13 306 4.8 12.9 0.03 0.38 0.13 52 1011.5
20260507154727 13 252 4.8 11.3 0.00 0.41 0.10 54 1011.5
20260507153241 13 292 3.2 11.3 0.00 0.41 0.10 58 1011.6
20260507151715 13 297 4.8 12.9 0.00 0.41 0.10 59 1011.5
20260507150238 13 290 3.2 6.4 0.00 0.41 0.10 61 1011.4
20260507144717 12 285 4.8 11.3 0.00 0.46 0.10 53 1011.4
20260507143212 12 244 4.8 11.3 0.00 0.46 0.10 59 1011.4
20260507141726 12 288 4.8 8.0 0.00 0.46 0.10 63 1011.4
20260507140226 12 279 1.6 4.8 0.00 0.46 0.10 65 1011.6
20260507134728 12 59 1.6 4.8 0.03 0.48 0.10 66 1011.7
20260507133223 12 199 0.0 4.8 0.03 0.48 0.10 68 1011.8
20260507131712 11 246 1.6 4.8 0.03 0.48 0.10 69 1011.9
20260507130234 10 279 1.6 6.4 0.03 0.48 0.10 70 1012.0
20260507124714 10 277 0.0 4.8 0.00 0.48 0.08 69 1011.9
20260507123251 10 276 3.2 6.4 0.00 0.48 0.08 70 1012.1
20260507121720 9 270 3.2 6.4 0.00 0.48 0.08 71 1012.0
20260507120244 9 127 0.0 0.0 0.00 0.48 0.08 76 1011.9
20260507114722 8 127 0.0 0.0 0.03 0.53 0.08 79 1011.9
20260507113217 7 127 0.0 0.0 0.03 0.53 0.08 81 1011.6
20260507111729 6 127 0.0 0.0 0.03 0.53 0.08 81 1011.7
20260507110231 6 127 0.0 0.0 0.03 0.53 0.08 81 1011.6
20260507104713 6 127 0.0 0.0 0.00 0.56 0.05 80 1011.4
20260507103225 6 127 0.0 0.0 0.00 0.56 0.05 80 1011.4
20260507101715 6 127 0.0 0.0 0.00 0.56 0.05 79 1011.2
20260507100236 6 127 0.0 0.0 0.00 0.56 0.05 79 1011.4
20260507094721 6 127 0.0 0.0 0.00 0.58 0.05 79 1011.3
20260507093212 6 127 0.0 0.0 0.00 0.58 0.05 79 1011.3
20260507091745 6 127 0.0 0.0 0.00 0.58 0.05 79 1011.3
20260507090224 6 127 0.0 0.0 0.00 0.58 0.05 79 1011.4
20260507084732 6 127 0.0 1.6 0.00 0.64 0.05 79 1011.3
20260507083223 6 127 0.0 0.0 0.03 0.64 0.05 79 1011.6
20260507081715 6 127 0.0 1.6 0.03 0.64 0.05 79 1011.4
20260507080259 6 127 0.0 1.6 0.03 0.64 0.05 79 1011.4
20260507074723 7 127 0.0 1.6 0.03 0.69 0.05 79 1011.5
20260507073233 7 127 0.0 1.6 0.00 0.66 0.03 79 1011.6
20260507071727 7 128 0.0 1.6 0.00 0.66 0.03 79 1011.6
20260507070232 7 128 0.0 1.6 0.00 0.66 0.03 79 1011.7
20260507064733 7 128 0.0 1.6 0.03 0.71 0.03 79 1011.9
20260507063223 7 128 0.0 1.6 0.03 0.71 0.03 78 1011.9
20260507061713 7 128 0.0 0.0 0.03 0.71 0.03 78 1012.1
20260507060240 7 128 0.0 1.6 0.03 0.71 0.03 77 1012.1